| time (UTC) | temp F | wind direction | speed knots | gust knots | rain 1hr in | rain 24hr in | rain mn in | humidity % | barometer mb |
| 20260507051545 | 46 | 0 | 0.0 | 2.6 | 0.00 | 0.43 | 0.00 | 94 | 1036.5 |
| 20260507050053 | 46 | 0 | 0.9 | 2.6 | 0.00 | 0.43 | 0.00 | 94 | 1036.4 |
| 20260507044546 | 46 | 113 | 0.0 | 1.7 | 0.00 | 0.43 | 0.00 | 95 | 1036.3 |
| 20260507043050 | 46 | 15 | 0.0 | 1.7 | 0.00 | 0.43 | 0.00 | 94 | 1036.0 |
| 20260507041552 | 46 | 0 | 0.9 | 2.6 | 0.00 | 0.43 | 0.00 | 94 | 1036.3 |
| 20260507040058 | 47 | 0 | 0.0 | 2.6 | 0.01 | 0.43 | 0.00 | 95 | 1036.6 |
| 20260507034554 | 47 | 0 | 0.0 | 4.3 | 0.01 | 0.43 | 0.43 | 95 | 1036.1 |
| 20260507033051 | 48 | 15 | 0.0 | 2.6 | 0.02 | 0.43 | 0.43 | 95 | 1035.9 |
| 20260507031559 | 48 | 11 | 0.0 | 3.5 | 0.04 | 0.43 | 0.43 | 95 | 1035.9 |
| 20260507030054 | 50 | 15 | 0.9 | 3.5 | 0.04 | 0.42 | 0.42 | 95 | 1035.8 |
| 20260507024548 | 50 | 70 | 0.0 | 2.6 | 0.04 | 0.42 | 0.42 | 95 | 1035.9 |
| 20260507023051 | 50 | 27 | 0.9 | 7.0 | 0.04 | 0.41 | 0.41 | 94 | 1035.8 |
| 20260507021549 | 51 | 342 | 1.7 | 4.3 | 0.03 | 0.39 | 0.39 | 94 | 1035.7 |
| 20260507020053 | 52 | 9 | 1.7 | 5.2 | 0.03 | 0.38 | 0.38 | 93 | 1035.1 |
| 20260507014555 | 54 | 281 | 0.9 | 5.2 | 0.08 | 0.38 | 0.38 | 95 | 1035.0 |
| 20260507013108 | 55 | 328 | 0.9 | 2.6 | 0.09 | 0.36 | 0.36 | 94 | 1034.9 |
| 20260507011550 | 55 | 0 | 0.0 | 7.0 | 0.09 | 0.36 | 0.36 | 94 | 1034.8 |
| 20260507010058 | 57 | 5 | 1.7 | 6.1 | 0.08 | 0.35 | 0.35 | 95 | 1034.7 |
| 20260507004555 | 56 | 330 | 0.9 | 6.1 | 0.03 | 0.31 | 0.30 | 95 | 1034.4 |
| 20260507003053 | 56 | 180 | 0.9 | 3.5 | 0.00 | 0.28 | 0.27 | 95 | 1034.3 |
| 20260507001559 | 56 | 0 | 0.0 | 3.5 | 0.01 | 0.28 | 0.27 | 95 | 1034.0 |
| 20260507000054 | 56 | 286 | 0.9 | 3.5 | 0.01 | 0.28 | 0.27 | 95 | 1034.0 |
| 20260506234549 | 56 | 41 | 0.0 | 3.5 | 0.01 | 0.28 | 0.27 | 95 | 1033.7 |
| 20260506233106 | 56 | 0 | 0.0 | 8.7 | 0.01 | 0.28 | 0.27 | 95 | 1033.6 |
| 20260506231558 | 56 | 86 | 1.7 | 6.1 | 0.00 | 0.27 | 0.26 | 95 | 1033.6 |
| 20260506230103 | 56 | 44 | 0.9 | 4.3 | 0.00 | 0.27 | 0.26 | 95 | 1033.7 |
| 20260506224553 | 56 | 50 | 0.9 | 5.2 | 0.00 | 0.27 | 0.26 | 94 | 1033.7 |
| 20260506223053 | 56 | 192 | 1.7 | 6.1 | 0.00 | 0.27 | 0.26 | 94 | 1033.9 |
| 20260506221555 | 56 | 0 | 1.7 | 7.0 | 0.00 | 0.27 | 0.26 | 94 | 1033.9 |
| 20260506220059 | 57 | 46 | 1.7 | 7.0 | 0.00 | 0.27 | 0.26 | 93 | 1033.9 |
| 20260506214600 | 57 | 63 | 0.9 | 9.6 | 0.00 | 0.27 | 0.26 | 93 | 1034.0 |
| 20260506213050 | 57 | 188 | 0.9 | 7.8 | 0.00 | 0.27 | 0.26 | 93 | 1034.0 |
| 20260506211601 | 57 | 169 | 0.9 | 6.1 | 0.00 | 0.27 | 0.26 | 93 | 1034.0 |
| 20260506210047 | 58 | 96 | 1.7 | 7.8 | 0.02 | 0.27 | 0.26 | 93 | 1034.0 |
| 20260506204549 | 58 | 117 | 0.9 | 8.7 | 0.05 | 0.27 | 0.26 | 93 | 1034.1 |
| 20260506203049 | 58 | 243 | 1.7 | 7.8 | 0.07 | 0.27 | 0.26 | 93 | 1034.4 |
| 20260506201547 | 58 | 84 | 0.9 | 6.1 | 0.10 | 0.27 | 0.26 | 93 | 1034.5 |
| 20260506200049 | 58 | 217 | 1.7 | 7.0 | 0.14 | 0.25 | 0.24 | 93 | 1034.6 |
| 20260506194553 | 58 | 165 | 0.9 | 5.2 | 0.11 | 0.22 | 0.21 | 94 | 1034.8 |
| 20260506193049 | 58 | 167 | 0.9 | 5.2 | 0.09 | 0.20 | 0.19 | 93 | 1034.9 |
| 20260506191549 | 59 | 45 | 0.9 | 5.2 | 0.08 | 0.17 | 0.16 | 93 | 1035.1 |
| 20260506190052 | 59 | 0 | 0.9 | 4.3 | 0.03 | 0.11 | 0.10 | 93 | 1035.1 |
| 20260506184559 | 59 | 71 | 0.9 | 4.3 | 0.04 | 0.11 | 0.10 | 94 | 1034.9 |
| 20260506183053 | 59 | 69 | 0.0 | 5.2 | 0.06 | 0.11 | 0.10 | 93 | 1035.1 |
| 20260506181553 | 59 | 0 | 0.9 | 3.5 | 0.07 | 0.09 | 0.08 | 93 | 1035.8 |
| 20260506180055 | 59 | 64 | 0.9 | 4.3 | 0.07 | 0.08 | 0.07 | 93 | 1036.3 |
| 20260506174554 | 59 | 62 | 0.0 | 2.6 | 0.06 | 0.07 | 0.06 | 92 | 1036.2 |
| 20260506173107 | 59 | 40 | 0.0 | 2.6 | 0.04 | 0.05 | 0.04 | 91 | 1036.6 |
| 20260506171602 | 60 | 63 | 0.9 | 3.5 | 0.01 | 0.02 | 0.01 | 88 | 1036.6 |
| 20260506170059 | 61 | 0 | 0.9 | 4.3 | 0.00 | 0.01 | 0.00 | 85 | 1036.6 |
| 20260506164610 | 62 | 157 | 1.7 | 5.2 | 0.00 | 0.01 | 0.00 | 80 | 1036.5 |
| 20260506163059 | 64 | 13 | 1.7 | 8.7 | 0.00 | 0.01 | 0.00 | 78 | 1036.4 |
| 20260506161551 | 64 | 150 | 1.7 | 6.1 | 0.00 | 0.01 | 0.00 | 77 | 1036.7 |
| 20260506160107 | 64 | 0 | 0.9 | 4.3 | 0.00 | 0.01 | 0.00 | 76 | 1037.0 |
| 20260506154554 | 63 | 105 | 1.7 | 7.8 | 0.00 | 0.01 | 0.00 | 77 | 1037.1 |
| 20260506153050 | 63 | 188 | 2.6 | 8.7 | 0.00 | 0.01 | 0.00 | 76 | 1037.2 |
| 20260506151550 | 63 | 188 | 1.7 | 5.2 | 0.00 | 0.01 | 0.00 | 76 | 1037.4 |
| 20260506150049 | 64 | 352 | 0.9 | 4.3 | 0.00 | 0.01 | 0.00 | 76 | 1037.5 |
| 20260506144548 | 64 | 211 | 1.7 | 8.7 | 0.00 | 0.01 | 0.00 | 74 | 1037.6 |
| 20260506143050 | 65 | 193 | 0.9 | 3.5 | 0.00 | 0.01 | 0.00 | 74 | 1037.1 |
| 20260506141606 | 66 | 273 | 0.9 | 5.2 | 0.00 | 0.01 | 0.00 | 72 | 1037.3 |
| 20260506140047 | 64 | 198 | 0.9 | 7.0 | 0.00 | 0.01 | 0.00 | 76 | 1037.1 |
| 20260506134552 | 64 | 213 | 1.7 | 7.0 | 0.00 | 0.01 | 0.00 | 76 | 1037.1 |
| 20260506133106 | 62 | 205 | 2.6 | 8.7 | 0.00 | 0.01 | 0.00 | 79 | 1037.0 |
| 20260506131555 | 61 | 53 | 0.9 | 5.2 | 0.00 | 0.01 | 0.00 | 81 | 1037.6 |
| 20260506130051 | 60 | 187 | 0.9 | 7.0 | 0.00 | 0.01 | 0.00 | 81 | 1037.6 |
| 20260506124550 | 60 | 254 | 2.6 | 13.9 | 0.00 | 0.01 | 0.00 | 82 | 1037.5 |
| 20260506123051 | 60 | 181 | 1.7 | 7.0 | 0.00 | 0.01 | 0.00 | 82 | 1037.7 |
| 20260506121601 | 59 | 121 | 1.7 | 9.6 | 0.00 | 0.01 | 0.00 | 83 | 1037.6 |
| 20260506120118 | 59 | 15 | 1.7 | 7.0 | 0.00 | 0.01 | 0.00 | 83 | 1037.4 |
| 20260506114550 | 59 | 166 | 1.7 | 7.0 | 0.00 | 0.01 | 0.00 | 82 | 1037.8 |
| 20260506113059 | 58 | 92 | 1.7 | 10.4 | 0.00 | 0.01 | 0.00 | 84 | 1037.7 |
| 20260506111552 | 58 | 17 | 1.7 | 7.0 | 0.00 | 0.01 | 0.00 | 84 | 1037.9 |
| 20260506110054 | 57 | 176 | 1.7 | 6.1 | 0.00 | 0.01 | 0.00 | 84 | 1038.0 |
| 20260506104548 | 57 | 192 | 0.9 | 7.0 | 0.00 | 0.01 | 0.00 | 84 | 1037.9 |
| 20260506103053 | 56 | 48 | 0.9 | 3.5 | 0.00 | 0.01 | 0.00 | 86 | 1037.9 |
| 20260506101550 | 55 | 77 | 0.9 | 3.5 | 0.00 | 0.01 | 0.00 | 86 | 1037.9 |
| 20260506100053 | 55 | 51 | 0.0 | 3.5 | 0.00 | 0.01 | 0.00 | 85 | 1037.6 |
| 20260506094550 | 55 | 206 | 0.9 | 4.3 | 0.00 | 0.01 | 0.00 | 85 | 1037.6 |
| 20260506093051 | 55 | 104 | 0.9 | 6.1 | 0.00 | 0.01 | 0.00 | 85 | 1037.8 |
| 20260506091601 | 56 | 0 | 0.0 | 4.3 | 0.00 | 0.01 | 0.00 | 84 | 1037.7 |
| 20260506090053 | 56 | 109 | 0.9 | 4.3 | 0.00 | 0.01 | 0.00 | 83 | 1037.7 |
| 20260506084553 | 56 | 0 | 0.9 | 3.5 | 0.00 | 0.01 | 0.00 | 83 | 1037.8 |
| 20260506083055 | 56 | 0 | 0.0 | 5.2 | 0.00 | 0.01 | 0.00 | 82 | 1037.8 |
| 20260506081554 | 57 | 29 | 0.9 | 7.0 | 0.00 | 0.01 | 0.00 | 82 | 1037.8 |
| 20260506073058 | 58 | 47 | 0.0 | 5.2 | 0.00 | 0.01 | 0.00 | 79 | 1038.1 |
| 20260506071554 | 58 | 338 | 0.0 | 1.7 | 0.00 | 0.01 | 0.00 | 78 | 1038.1 |
| 20260506070114 | 58 | 0 | 0.9 | 5.2 | 0.00 | 0.01 | 0.00 | 77 | 1037.9 |
| 20260506061556 | 59 | 0 | 0.9 | 7.0 | 0.00 | 0.01 | 0.00 | 75 | 1037.6 |